STARLINK-4615, 53620

Orbit data source: Space-Track

STARLINK-4615, 53620 is a payload satellite owned by SpaceX/Seattle (US) in LEO that was launched on Sun, 28 Aug 2022 UTC via an FALCON 9 launch vehicle from the Air Force Eastern Test Range (AFETR). Payloads include a variety of satellites, spacecraft, and rockets equipped with specific instruments for various scientific and technological missions. These include communications satellites like Starlink; space stations such as the ISS; scientific satellites like the Hubble; Earth observation satellites from companies like Planet Labs, Umbra, and HawkEye 360; GPS; miniature CubeSats for education and research; and military/defense satellites.

Loading next visibility...
STARLINK-4615 details
Identifier
53620, 2022-104AJ
Orbit
LEO
Last TLE update6 hours ago
Origin
Flag of USSpaceX/Seattle (US)
ManufacturerSpaceX/Seattle
MissionOperational Commercial Communications
Bus & MotorSTARLINK, Unknown motor
Mass300 kg wet, ~290 kg dry
Launch date (UTC)
2022-08-28 (2 years ago)
Launch vehicle
FALCON 9
Launch site
Air Force Eastern Test Range (AFETR)
Object type
Payload
Rocket body
Debris
Shape & HBRBox + 1 Pan, 8.86 m
Radar Cross Section13.562 m², Large (>1 m²)

Expand to show TLE details & history

TLE from 6 hours ago
0 STARLINK-4615
1 53620U 22104AJ  24361.48737598  .00000097  00000-0  24170-4 0  9996
2 53620  53.2195  41.1247 0001533  94.7287 265.3880 15.08839199128917
Epoch: 2024-12-26T11:41Z
Definitive object data (Epoch: 2024-12-26T11:41:49.284Z)
Latitude-0.00005°
Longitude130.20325°
Altitude540.729 km
Speed7.593 km/s
True Right ascension02h 44m 29s
True Declination0° 00' 00"
Sunlit
Object was in full shadow at TLE epoch
Visualization TLE readout
Latitude-28.95393°
Longitude-26.57962°
Altitude549.044 km
Speed7.587 km/s
Apparent Right ascension14h 24m 45s
Apparent Declination-79° 30' 07"
Sunlit
Object is in daylight
Visualization observer readout
Local Sidereal Time16:47:44
Azimuth187.146° SSW
Elevation-31.165°
Doppler factor1
Orbital elements
Apogee altitude541.051 km
Perigee altitude538.93 km
Semi-major axis6,918.127 km
Eccentricity0.0001533
Inclination53.2195°
RAAN41.1247°
Arg. of periapsis94.7287°
True anomaly265.37049°
Mean anomaly265.388°
Eccentric anomaly265.37925°
Mean motion3.7719 °/min
BSTAR0.00002417
Orbital period95.44 mins
Loading maneuver chart data...
Loading historical data...
Loading historical data...
Loading historical data...
Loading historical data...
Loading historical data...
Loading historical data...
Loading historical data...

STARLINK-4615 Visibility forecast

Observer location: undefined°, undefined

Span
Click to sort rows by Start time (UTC) header in descending order
Start Az.
Max El. time (UTC)
Max El. Az.
Max El.
End time (UTC)
End Az.
7 mins2024-12-27 05:21:24.930Z215.668° SW2024-12-27 05:24:24.930Z143.731° SSE42.088°2024-12-27 05:28:24.930Z55.375° ENE
5 mins2024-12-27 07:02:24.930Z298.282° NW2024-12-27 07:04:24.930Z342.107° N22.325°2024-12-27 07:07:24.930Z30.326° NE
6 mins2024-12-27 12:02:24.930Z319.377° NNW2024-12-27 12:05:24.930Z43.531° NE41.142°2024-12-27 12:08:24.930Z115.38° SE
|